Location: Unspecified
(45.0173°N, 35.2345°E)
Time: 01:56:46
(UTC+02:00)

Tiangong - Pass Details

Date: 30 January 2026
Orbit: 386 x 392 km, 41.5° (Epoch: 10 February)

Event Time Altitude Azimuth Distance (km) Brightness Sun altitude
Exits shadow 05:04:44 14° 180° (S) 1,223 0.4 -20.7°
Drops below altitude 10° 05:05:39 10° 165° (SSE) 1,425 1.0 -20.5°
Sets 05:08:15 0° 143° (SE) 2,279 2.4 -20.1°
